Time,TemperatureF,DewpointF,PressureIn,WindDirection,WindDirectionDegrees,WindSpeedMPH,WindSpeedGustMPH,Humidity,HourlyPrecipIn,Conditions,Clouds,dailyrainin,SolarRadiationWatts/m^2,SoftwareType,DateUTC
2013-07-04 00:02:00,81.3,57.3,30.00,East,90,3.5,3.5,44,0.00,CLR,,0.00,0.0,WeatherDisplay:10.37,2013-07-04 05:02:00,
2013-07-04 00:07:00,81.3,57.3,30.00,East,90,3.5,3.5,44,0.00,CLR,,0.00,0.0,WeatherDisplay:10.37,2013-07-04 05:07:00,
2013-07-04 00:12:00,81.3,57.3,30.01,ENE,68,3.5,3.5,44,0.00,CLR,,0.00,0.0,WeatherDisplay:10.37,2013-07-04 05:12:00,
2013-07-04 00:18:00,81.1,57.8,30.01,ESE,112,4.6,4.6,45,0.00,CLR,,0.00,0.0,WeatherDisplay:10.37,2013-07-04 05:18:00,
2013-07-04 00:23:00,80.8,57.5,30.01,SE,135,4.9,4.9,45,0.00,CLR,,0.00,10.0,WeatherDisplay:10.37,2013-07-04 05:23:00,
2013-07-04 00:28:00,80.8,57.5,30.01,ESE,112,4.6,4.6,45,0.00,CLR,,0.00,10.0,WeatherDisplay:10.37,2013-07-04 05:28:00,
2013-07-04 00:33:00,80.8,58.1,30.01,ENE,68,2.3,3.1,46,0.00,CLR,,0.00,10.0,WeatherDisplay:10.37,2013-07-04 05:33:00,
2013-07-04 00:38:00,80.6,57.9,30.01,ESE,112,3.5,3.5,46,0.00,CLR,,0.00,10.0,WeatherDisplay:10.37,2013-07-04 05:38:00,
2013-07-04 00:43:00,80.8,58.1,30.01,ENE,68,2.3,3.1,46,0.00,CLR,,0.00,0.0,WeatherDisplay:10.37,2013-07-04 05:43:00,
2013-07-04 00:48:00,80.4,57.7,30.01,ESE,112,3.5,3.5,46,0.00,CLR,,0.00,0.0,WeatherDisplay:10.37,2013-07-04 05:48:00,
2013-07-04 00:53:00,80.2,58.2,30.01,East,90,3.5,3.5,47,0.00,CLR,,0.00,0.0,WeatherDisplay:10.37,2013-07-04 05:53:00,
2013-07-04 00:59:00,80.4,58.3,30.01,ESE,112,3.5,3.5,47,0.00,CLR,,0.00,0.0,WeatherDisplay:10.37,2013-07-04 05:59:00,
2013-07-04 01:04:00,80.1,58.0,30.01,SE,135,3.5,3.5,47,0.00,CLR,,0.00,0.0,WeatherDisplay:10.37,2013-07-04 06:04:00,
2013-07-04 01:09:00,80.1,58.6,30.00,East,90,3.7,3.7,48,0.00,CLR,,0.00,0.0,WeatherDisplay:10.37,2013-07-04 06:09:00,
2013-07-04 01:15:00,80.1,58.6,30.00,SE,135,5.8,5.8,48,0.00,CLR,,0.00,0.0,WeatherDisplay:10.37,2013-07-04 06:15:00,
2013-07-04 01:20:00,80.1,58.6,30.00,ESE,112,5.8,5.8,48,0.00,CLR,,0.00,0.0,WeatherDisplay:10.37,2013-07-04 06:20:00,
2013-07-04 01:25:00,79.9,58.4,30.00,ESE,112,2.6,3.1,48,0.00,CLR,,0.00,0.0,WeatherDisplay:10.37,2013-07-04 06:25:00,
2013-07-04 01:30:00,79.7,58.3,30.01,ESE,112,4.6,4.6,48,0.00,CLR,,0.00,0.0,WeatherDisplay:10.37,2013-07-04 06:30:00,
2013-07-04 01:35:00,79.7,58.8,30.01,ESE,112,4.6,4.6,49,0.00,CLR,,0.00,0.0,WeatherDisplay:10.37,2013-07-04 06:35:00,
2013-07-04 01:41:00,79.5,58.7,30.01,East,90,3.5,3.5,49,0.00,CLR,,0.00,0.0,WeatherDisplay:10.37,2013-07-04 06:41:00,
2013-07-04 01:46:00,79.7,58.8,30.01,East,90,3.7,3.7,49,0.00,CLR,,0.00,0.0,WeatherDisplay:10.37,2013-07-04 06:46:00,
2013-07-04 01:51:00,79.5,58.7,30.00,ESE,112,5.8,5.8,49,0.00,CLR,,0.00,0.0,WeatherDisplay:10.37,2013-07-04 06:51:00,
2013-07-04 01:56:00,79.3,59.1,30.00,East,90,5.8,5.8,50,0.00,CLR,,0.00,0.0,WeatherDisplay:10.37,2013-07-04 06:56:00,
2013-07-04 02:01:00,79.3,59.1,30.00,East,90,4.9,4.9,50,0.00,CLR,,0.00,0.0,WeatherDisplay:10.37,2013-07-04 07:01:00,
2013-07-04 02:07:00,79.2,58.9,30.00,ESE,112,4.6,4.6,50,0.00,CLR,,0.00,0.0,WeatherDisplay:10.37,2013-07-04 07:07:00,
2013-07-04 02:12:00,79.2,59.5,30.00,ESE,112,7.2,7.2,51,0.00,CLR,,0.00,0.0,WeatherDisplay:10.37,2013-07-04 07:12:00,
2013-07-04 02:17:00,79.0,59.3,30.00,ESE,112,9.2,9.2,51,0.00,CLR,,0.00,0.0,WeatherDisplay:10.37,2013-07-04 07:17:00,
2013-07-04 02:22:00,79.0,59.3,30.00,ESE,112,6.9,6.9,51,0.00,CLR,,0.00,0.0,WeatherDisplay:10.37,2013-07-04 07:22:00,
2013-07-04 02:27:00,79.0,59.3,30.00,SE,135,5.8,5.8,51,0.00,CLR,,0.00,0.0,WeatherDisplay:10.37,2013-07-04 07:27:00,
2013-07-04 02:32:00,78.8,59.1,30.01,SE,135,4.6,4.6,51,0.00,CLR,,0.00,0.0,WeatherDisplay:10.37,2013-07-04 07:32:00,
2013-07-04 02:38:00,78.6,59.5,30.01,SSE,158,5.8,5.8,52,0.00,CLR,,0.00,0.0,WeatherDisplay:10.37,2013-07-04 07:38:00,
2013-07-04 02:43:00,78.6,59.5,30.01,SE,135,4.6,4.6,52,0.00,CLR,,0.00,0.0,WeatherDisplay:10.37,2013-07-04 07:43:00,
2013-07-04 02:48:00,78.4,59.4,30.01,ESE,112,6.2,6.2,52,0.00,CLR,,0.00,0.0,WeatherDisplay:10.37,2013-07-04 07:48:00,
2013-07-04 02:53:00,78.3,59.2,29.99,ESE,112,5.8,5.8,52,0.00,CLR,,0.00,0.0,WeatherDisplay:10.37,2013-07-04 07:53:00,
2013-07-04 02:58:00,78.1,59.6,29.99,SE,135,4.6,4.6,53,0.00,CLR,,0.00,0.0,WeatherDisplay:10.37,2013-07-04 07:58:00,
2013-07-04 03:04:00,78.3,59.7,29.99,East,90,5.8,5.8,53,0.00,CLR,,0.00,0.0,WeatherDisplay:10.37,2013-07-04 08:04:00,
2013-07-04 03:09:00,78.3,59.7,30.00,East,90,5.8,5.8,53,0.00,CLR,,0.00,0.0,WeatherDisplay:10.37,2013-07-04 08:09:00,
2013-07-04 03:14:00,77.9,59.9,30.00,ESE,112,5.8,5.8,54,0.00,CLR,,0.00,0.0,WeatherDisplay:10.37,2013-07-04 08:14:00,
2013-07-04 03:19:00,77.7,59.7,30.00,SE,135,5.8,5.8,54,0.00,CLR,,0.00,0.0,WeatherDisplay:10.37,2013-07-04 08:19:00,
2013-07-04 03:24:00,77.7,59.7,30.00,ESE,112,5.8,5.8,54,0.00,CLR,,0.00,0.0,WeatherDisplay:10.37,2013-07-04 08:24:00,
2013-07-04 03:29:00,77.5,59.6,30.00,SE,135,4.6,4.6,54,0.00,CLR,,0.00,0.0,WeatherDisplay:10.37,2013-07-04 08:29:00,
2013-07-04 03:35:00,77.5,60.1,30.00,SE,135,5.8,5.8,55,0.00,CLR,,0.00,0.0,WeatherDisplay:10.37,2013-07-04 08:35:00,
2013-07-04 03:40:00,77.5,60.1,30.00,SE,135,4.6,4.6,55,0.00,CLR,,0.00,0.0,WeatherDisplay:10.37,2013-07-04 08:40:00,
2013-07-04 03:45:00,77.4,60.4,30.00,ESE,112,5.2,5.2,56,0.00,CLR,,0.00,0.0,WeatherDisplay:10.37,2013-07-04 08:45:00,
2013-07-04 03:50:00,77.2,60.3,29.99,SE,135,6.9,6.9,56,0.00,CLR,,0.00,0.0,WeatherDisplay:10.37,2013-07-04 08:50:00,
2013-07-04 03:56:00,77.2,60.3,29.99,ESE,112,6.9,6.9,56,0.00,CLR,,0.00,0.0,WeatherDisplay:10.37,2013-07-04 08:56:00,
2013-07-04 04:01:00,77.0,60.1,29.99,SE,135,4.6,4.6,56,0.00,CLR,,0.00,0.0,WeatherDisplay:10.37,2013-07-04 09:01:00,
2013-07-04 04:06:00,77.2,60.3,29.99,NE,45,3.5,3.6,56,0.00,CLR,,0.00,0.0,WeatherDisplay:10.37,2013-07-04 09:06:00,
2013-07-04 04:11:00,77.0,60.6,29.99,ESE,112,4.6,4.6,57,0.00,CLR,,0.00,0.0,WeatherDisplay:10.37,2013-07-04 09:11:00,
2013-07-04 04:16:00,76.8,60.4,29.99,ESE,112,5.8,5.8,57,0.00,CLR,,0.00,0.0,WeatherDisplay:10.37,2013-07-04 09:16:00,
2013-07-04 04:22:00,76.8,60.4,29.99,SE,135,4.6,4.6,57,0.00,CLR,,0.00,0.0,WeatherDisplay:10.37,2013-07-04 09:22:00,
2013-07-04 04:27:00,76.6,60.8,29.99,ENE,68,2.3,3.3,58,0.00,CLR,,0.00,0.0,WeatherDisplay:10.37,2013-07-04 09:27:00,
2013-07-04 04:32:00,76.6,60.8,29.99,ENE,68,4.6,4.6,58,0.00,CLR,,0.00,0.0,WeatherDisplay:10.37,2013-07-04 09:32:00,
2013-07-04 04:37:00,76.8,60.9,29.99,ESE,112,4.6,4.6,58,0.00,CLR,,0.00,0.0,WeatherDisplay:10.37,2013-07-04 09:37:00,
2013-07-04 04:42:00,76.6,60.8,29.99,ESE,112,4.6,4.6,58,0.00,CLR,,0.00,0.0,WeatherDisplay:10.37,2013-07-04 09:42:00,
2013-07-04 04:47:00,76.6,61.2,29.99,SE,135,3.5,3.5,59,0.00,CLR,,0.00,0.0,WeatherDisplay:10.37,2013-07-04 09:47:00,
2013-07-04 04:53:00,76.3,60.9,29.99,ESE,112,5.8,5.8,59,0.00,CLR,,0.00,0.0,WeatherDisplay:10.37,2013-07-04 09:53:00,
2013-07-04 04:58:00,76.5,61.1,29.99,ESE,112,4.6,4.6,59,0.00,CLR,,0.00,0.0,WeatherDisplay:10.37,2013-07-04 09:58:00,
2013-07-04 05:03:00,76.5,61.1,29.99,ESE,112,5.4,5.4,59,0.00,CLR,,0.00,0.0,WeatherDisplay:10.37,2013-07-04 10:03:00,
2013-07-04 05:08:00,76.1,60.7,29.99,ESE,112,6.9,6.9,59,0.00,CLR,,0.00,0.0,WeatherDisplay:10.37,2013-07-04 10:08:00,
2013-07-04 05:13:00,76.1,61.2,29.99,ESE,112,4.6,4.6,60,0.00,CLR,,0.00,0.0,WeatherDisplay:10.37,2013-07-04 10:13:00,
2013-07-04 05:18:00,75.9,60.6,29.99,SE,135,4.6,4.6,59,0.00,CLR,,0.00,0.0,WeatherDisplay:10.37,2013-07-04 10:18:00,
2013-07-04 05:24:00,75.9,61.0,29.99,East,90,3.5,3.5,60,0.00,CLR,,0.00,0.0,WeatherDisplay:10.37,2013-07-04 10:24:00,
2013-07-04 05:29:00,75.7,60.9,29.99,ESE,112,3.9,3.9,60,0.00,CLR,,0.00,0.0,WeatherDisplay:10.37,2013-07-04 10:29:00,
2013-07-04 05:34:00,75.7,60.9,29.99,East,90,5.8,5.8,60,0.00,CLR,,0.00,0.0,WeatherDisplay:10.37,2013-07-04 10:34:00,
2013-07-04 05:39:00,75.6,60.7,29.99,SE,135,3.5,3.5,60,0.00,CLR,,0.00,0.0,WeatherDisplay:10.37,2013-07-04 10:39:00,
2013-07-04 05:44:00,75.7,60.9,29.99,SSE,158,3.5,3.5,60,0.00,CLR,,0.00,0.0,WeatherDisplay:10.37,2013-07-04 10:44:00,
2013-07-04 05:49:00,75.4,60.5,30.00,ESE,112,2.3,2.6,60,0.00,CLR,,0.00,0.0,WeatherDisplay:10.37,2013-07-04 10:49:00,
2013-07-04 05:54:00,75.4,61.0,30.00,SE,135,3.5,3.5,61,0.00,CLR,,0.00,0.0,WeatherDisplay:10.37,2013-07-04 10:54:00,
2013-07-04 06:00:00,75.4,61.0,30.00,SE,135,5.8,5.8,61,0.00,OVC,,0.00,0.0,WeatherDisplay:10.37,2013-07-04 11:00:00,
2013-07-04 06:05:00,75.2,60.8,30.00,ESE,112,3.5,3.5,61,0.00,OVC,,0.00,0.0,WeatherDisplay:10.37,2013-07-04 11:05:00,
2013-07-04 06:10:00,75.2,60.8,30.00,ESE,112,3.6,3.6,61,0.00,OVC,,0.00,0.0,WeatherDisplay:10.37,2013-07-04 11:10:00,
2013-07-04 06:15:00,75.0,61.1,30.00,SE,135,4.6,4.6,62,0.00,OVC,,0.00,0.0,WeatherDisplay:10.37,2013-07-04 11:15:00,
2013-07-04 06:21:00,74.8,60.9,30.00,East,90,4.6,4.6,62,0.00,OVC,,0.00,0.0,WeatherDisplay:10.37,2013-07-04 11:21:00,
2013-07-04 06:26:00,75.0,61.6,30.00,ESE,112,4.6,4.6,63,0.00,OVC,,0.00,0.0,WeatherDisplay:10.37,2013-07-04 11:26:00,
2013-07-04 06:31:00,74.8,61.4,30.00,SE,135,4.6,4.6,63,0.00,OVC,,0.00,0.0,WeatherDisplay:10.37,2013-07-04 11:31:00,
2013-07-04 06:36:00,74.7,61.2,30.00,ESE,112,4.6,4.6,63,0.00,OVC,,0.00,0.0,WeatherDisplay:10.37,2013-07-04 11:36:00,
2013-07-04 06:41:00,74.7,61.2,30.00,ESE,112,3.5,3.5,63,0.00,OVC,,0.00,0.0,WeatherDisplay:10.37,2013-07-04 11:41:00,
2013-07-04 06:46:00,74.5,61.5,30.00,ESE,112,3.5,3.5,64,0.00,OVC,,0.00,0.0,WeatherDisplay:10.37,2013-07-04 11:46:00,
2013-07-04 06:52:00,74.5,61.5,30.00,ESE,112,3.5,3.5,64,0.00,OVC,,0.00,0.0,WeatherDisplay:10.37,2013-07-04 11:52:00,
2013-07-04 06:57:00,74.3,61.3,30.00,ESE,112,3.5,3.5,64,0.00,OVC,,0.00,0.0,WeatherDisplay:10.37,2013-07-04 11:57:00,
2013-07-04 07:02:00,74.3,61.8,30.00,SE,135,2.3,2.3,65,0.00,OVC,,0.00,0.0,WeatherDisplay:10.37,2013-07-04 12:02:00,
2013-07-04 07:07:00,74.3,61.8,30.00,ESE,112,2.3,2.3,65,0.00,OVC,,0.00,0.0,WeatherDisplay:10.37,2013-07-04 12:07:00,
2013-07-04 07:12:00,74.3,61.8,30.00,SE,135,2.3,2.3,65,0.00,OVC,,0.00,0.0,WeatherDisplay:10.37,2013-07-04 12:12:00,
2013-07-04 07:17:00,74.1,62.0,30.00,East,90,2.3,2.3,66,0.00,OVC,,0.00,0.0,WeatherDisplay:10.37,2013-07-04 12:17:00,
2013-07-04 07:23:00,74.3,62.2,30.00,East,90,1.4,2.0,66,0.00,OVC,,0.00,0.0,WeatherDisplay:10.37,2013-07-04 12:23:00,
2013-07-04 07:28:00,74.3,62.2,30.00,SE,135,3.5,3.5,66,0.00,OVC,,0.00,0.0,WeatherDisplay:10.37,2013-07-04 12:28:00,
2013-07-04 07:33:00,74.1,62.0,30.02,ENE,68,3.5,3.5,66,0.00,OVC,,0.00,0.0,WeatherDisplay:10.37,2013-07-04 12:33:00,
2013-07-04 07:38:00,74.3,62.2,30.02,ESE,112,3.5,3.5,66,0.00,OVC,,0.00,0.0,WeatherDisplay:10.37,2013-07-04 12:38:00,
2013-07-04 07:43:00,74.3,62.2,30.02,SE,135,2.9,2.9,66,0.00,OVC,,0.00,0.0,WeatherDisplay:10.37,2013-07-04 12:43:00,
2013-07-04 07:49:00,74.5,62.8,30.02,ENE,68,3.5,3.5,67,0.00,OVC,,0.00,0.0,WeatherDisplay:10.37,2013-07-04 12:49:00,
2013-07-04 07:54:00,74.5,62.8,30.02,SE,135,3.5,3.5,67,0.00,OVC,,0.00,0.0,WeatherDisplay:10.37,2013-07-04 12:54:00,
2013-07-04 07:59:00,74.5,62.8,30.02,SE,135,4.6,4.6,67,0.00,OVC,,0.00,0.0,WeatherDisplay:10.37,2013-07-04 12:59:00,
2013-07-04 08:04:00,74.7,63.0,30.02,ESE,112,3.5,3.5,67,0.00,OVC,,0.00,0.0,WeatherDisplay:10.37,2013-07-04 13:04:00,
2013-07-04 08:09:00,74.8,64.4,30.03,ESE,112,2.3,2.6,70,0.00,OVC,,0.00,0.0,WeatherDisplay:10.37,2013-07-04 13:09:00,
2013-07-04 08:14:00,75.0,64.6,30.03,ESE,112,4.6,4.6,70,0.00,OVC,,0.00,0.0,WeatherDisplay:10.37,2013-07-04 13:14:00,
2013-07-04 08:19:00,75.0,65.0,30.03,SSE,158,2.3,3.3,71,0.00,OVC,,0.00,0.0,WeatherDisplay:10.37,2013-07-04 13:19:00,
2013-07-04 08:25:00,75.0,64.6,30.03,SE,135,2.3,2.5,70,0.00,OVC,,0.00,0.0,WeatherDisplay:10.37,2013-07-04 13:25:00,
2013-07-04 08:30:00,75.0,64.6,30.04,ESE,112,2.6,2.6,70,0.00,OVC,,0.00,0.0,WeatherDisplay:10.37,2013-07-04 13:30:00,
2013-07-04 08:35:00,75.4,64.9,30.04,SSE,158,3.5,3.5,70,0.00,OVC,,0.00,0.0,WeatherDisplay:10.37,2013-07-04 13:35:00,
2013-07-04 08:40:00,75.2,64.7,30.04,SSE,158,2.3,2.3,70,0.00,OVC,,0.00,0.0,WeatherDisplay:10.37,2013-07-04 13:40:00,
2013-07-04 08:42:00,75.2,64.7,30.04,SE,135,4.6,4.6,70,0.00,OVC,,0.00,0.0,WeatherDisplay:10.37,2013-07-04 13:42:00,
2013-07-04 08:48:00,75.6,64.7,30.04,SSE,158,3.5,3.5,69,0.00,OVC,,0.00,0.0,WeatherDisplay:10.37,2013-07-04 13:48:00,
2013-07-04 08:53:00,75.7,64.8,30.03,SW,225,2.9,2.9,69,0.00,OVC,,0.00,20.0,WeatherDisplay:10.37,2013-07-04 13:53:00,
2013-07-04 08:58:00,75.6,65.1,30.03,SE,135,2.3,2.3,70,0.00,OVC,,0.00,20.0,WeatherDisplay:10.37,2013-07-04 13:58:00,
2013-07-04 09:03:00,75.9,65.0,30.03,WSW,248,4.6,4.6,69,0.00,OVC,,0.00,20.0,WeatherDisplay:10.37,2013-07-04 14:03:00,
2013-07-04 09:08:00,75.9,64.6,30.03,SSE,158,3.5,3.5,68,0.00,OVC,,0.00,20.0,WeatherDisplay:10.37,2013-07-04 14:08:00,
2013-07-04 09:14:00,76.3,64.9,30.03,South,180,2.3,2.3,68,0.00,OVC,,0.00,20.0,WeatherDisplay:10.37,2013-07-04 14:14:00,
2013-07-04 09:19:00,76.5,64.3,30.03,South,180,3.5,3.5,66,0.00,OVC,,0.00,20.0,WeatherDisplay:10.37,2013-07-04 14:19:00,
2013-07-04 09:24:00,76.8,64.2,30.03,ESE,112,2.3,2.3,65,0.00,OVC,,0.00,20.0,WeatherDisplay:10.37,2013-07-04 14:24:00,
2013-07-04 09:29:00,77.2,64.1,30.03,SW,225,0.0,0.7,64,0.00,OVC,,0.00,20.0,WeatherDisplay:10.37,2013-07-04 14:29:00,
2013-07-04 09:34:00,77.0,63.4,30.04,SE,135,4.6,4.6,63,0.00,OVC,,0.00,30.0,WeatherDisplay:10.37,2013-07-04 14:34:00,
2013-07-04 09:39:00,77.5,64.8,30.04,East,90,0.0,1.8,65,0.00,OVC,,0.00,30.0,WeatherDisplay:10.37,2013-07-04 14:39:00,
2013-07-04 09:45:00,77.4,64.7,30.04,South,180,4.9,4.9,65,0.00,OVC,,0.00,30.0,WeatherDisplay:10.37,2013-07-04 14:45:00,
2013-07-04 09:50:00,77.5,64.4,30.03,SSE,158,6.1,6.1,64,0.00,OVC,,0.00,30.0,WeatherDisplay:10.37,2013-07-04 14:50:00,
2013-07-04 09:55:00,77.7,64.1,30.03,SSE,158,3.5,3.5,63,0.00,OVC,,0.00,30.0,WeatherDisplay:10.37,2013-07-04 14:55:00,
2013-07-04 10:00:00,78.3,64.2,30.03,WSW,248,2.3,2.3,62,0.00,OVC,,0.00,30.0,WeatherDisplay:10.37,2013-07-04 15:00:00,
2013-07-04 10:06:00,78.6,64.5,30.03,North,0,4.7,4.7,62,0.00,OVC,,0.00,30.0,WeatherDisplay:10.37,2013-07-04 15:06:00,
2013-07-04 10:11:00,78.8,62.8,30.03,South,180,1.4,1.5,58,0.00,OVC,,0.00,40.0,WeatherDisplay:10.37,2013-07-04 15:11:00,
2013-07-04 10:16:00,79.0,63.4,30.03,SSW,202,2.3,2.3,59,0.00,OVC,,0.00,40.0,WeatherDisplay:10.37,2013-07-04 15:16:00,
2013-07-04 10:21:00,79.3,64.2,30.03,SE,135,2.3,2.3,60,0.00,OVC,,0.00,40.0,WeatherDisplay:10.37,2013-07-04 15:21:00,
2013-07-04 10:26:00,79.3,63.8,30.03,NE,45,2.3,2.3,59,0.00,OVC,,0.00,40.0,WeatherDisplay:10.37,2013-07-04 15:26:00,
2013-07-04 10:31:00,79.5,63.9,30.03,South,180,0.0,1.4,59,0.00,OVC,,0.00,40.0,WeatherDisplay:10.37,2013-07-04 15:31:00,
2013-07-04 10:36:00,79.9,63.3,30.03,SSE,158,3.5,3.5,57,0.00,OVC,,0.00,40.0,WeatherDisplay:10.37,2013-07-04 15:36:00,
2013-07-04 10:42:00,80.2,64.1,30.03,SSE,158,3.5,3.5,58,0.00,OVC,,0.00,40.0,WeatherDisplay:10.37,2013-07-04 15:42:00,
2013-07-04 10:47:00,80.8,64.1,30.03,ESE,112,3.5,3.5,57,0.00,OVC,,0.00,40.0,WeatherDisplay:10.37,2013-07-04 15:47:00,
2013-07-04 10:52:00,80.8,64.1,30.03,SW,225,4.6,4.6,57,0.00,OVC,,0.00,40.0,WeatherDisplay:10.37,2013-07-04 15:52:00,
2013-07-04 10:57:00,81.1,63.4,30.03,SSE,158,6.1,6.1,55,0.00,OVC,,0.00,40.0,WeatherDisplay:10.37,2013-07-04 15:57:00,
2013-07-04 11:02:00,81.3,63.6,30.03,SSE,158,2.3,2.5,55,0.00,OVC,,0.00,40.0,WeatherDisplay:10.37,2013-07-04 16:02:00,
2013-07-04 11:08:00,81.7,63.4,30.03,ESE,112,7.2,7.2,54,0.00,OVC,,0.00,30.0,WeatherDisplay:10.37,2013-07-04 16:08:00,
2013-07-04 11:13:00,81.9,63.6,30.03,ESE,112,2.3,2.4,54,0.00,OVC,,0.00,30.0,WeatherDisplay:10.37,2013-07-04 16:13:00,
2013-07-04 11:18:00,82.0,63.8,30.03,South,180,6.9,6.9,54,0.00,OVC,,0.00,30.0,WeatherDisplay:10.37,2013-07-04 16:18:00,
2013-07-04 11:23:00,82.6,63.7,30.03,SSE,158,5.8,5.8,53,0.00,OVC,,0.00,30.0,WeatherDisplay:10.37,2013-07-04 16:23:00,
2013-07-04 11:29:00,82.6,63.2,30.03,SE,135,2.3,4.1,52,0.00,CLR,,0.00,30.0,WeatherDisplay:10.37,2013-07-04 16:29:00,
2013-07-04 11:34:00,82.8,63.3,30.02,ENE,68,6.9,6.9,52,0.00,CLR,,0.00,30.0,WeatherDisplay:10.37,2013-07-04 16:34:00,
2013-07-04 11:39:00,83.1,63.1,30.02,ESE,112,6.9,6.9,51,0.00,FEW,,0.00,30.0,WeatherDisplay:10.37,2013-07-04 16:39:00,
2013-07-04 11:44:00,83.5,63.4,30.02,South,180,4.6,4.6,51,0.00,BKN,,0.00,20.0,WeatherDisplay:10.37,2013-07-04 16:44:00,
2013-07-04 11:49:00,83.8,63.8,30.02,SE,135,1.2,2.5,51,0.00,OVC,,0.00,20.0,WeatherDisplay:10.37,2013-07-04 16:49:00,
2013-07-04 11:54:00,84.0,63.4,30.02,SSW,202,3.5,3.5,50,0.00,OVC,,0.00,20.0,WeatherDisplay:10.37,2013-07-04 16:54:00,
2013-07-04 11:59:00,84.4,63.1,30.02,ESE,112,5.5,5.5,49,0.00,OVC,,0.00,20.0,WeatherDisplay:10.37,2013-07-04 16:59:00,
2013-07-04 12:04:00,84.4,63.1,30.02,SSE,158,2.3,2.6,49,0.00,OVC,,0.00,20.0,WeatherDisplay:10.37,2013-07-04 17:04:00,
2013-07-04 12:10:00,84.4,63.1,30.02,SSE,158,2.3,2.6,49,0.00,OVC,,0.00,20.0,WeatherDisplay:10.37,2013-07-04 17:10:00,
2013-07-04 12:15:00,85.3,62.8,30.01,ESE,112,5.8,5.8,47,0.00,OVC,,0.00,30.0,WeatherDisplay:10.37,2013-07-04 17:15:00,
2013-07-04 12:20:00,85.3,62.8,30.01,SE,135,4.8,4.8,47,0.00,OVC,,0.00,20.0,WeatherDisplay:10.37,2013-07-04 17:20:00,
2013-07-04 12:25:00,85.8,62.6,30.01,ESE,112,6.9,6.9,46,0.00,OVC,,0.00,20.0,WeatherDisplay:10.37,2013-07-04 17:25:00,
2013-07-04 12:30:00,85.8,63.3,30.00,SE,135,3.5,4.6,47,0.00,OVC,,0.00,20.0,WeatherDisplay:10.37,2013-07-04 17:30:00,
2013-07-04 12:35:00,86.0,63.4,30.00,SSW,202,2.3,2.6,47,0.00,OVC,,0.00,20.0,WeatherDisplay:10.37,2013-07-04 17:35:00,
2013-07-04 12:41:00,86.4,61.2,30.00,ESE,112,1.2,1.2,43,0.00,OVC,,0.00,30.0,WeatherDisplay:10.37,2013-07-04 17:41:00,
2013-07-04 12:46:00,86.5,62.0,30.00,South,180,2.6,2.6,44,0.00,OVC,,0.00,30.0,WeatherDisplay:10.37,2013-07-04 17:46:00,
2013-07-04 12:51:00,86.9,62.4,30.00,ESE,112,5.8,5.8,44,0.00,OVC,,0.00,30.0,WeatherDisplay:10.37,2013-07-04 17:51:00,
2013-07-04 12:56:00,86.9,62.4,30.00,ESE,112,4.6,4.6,44,0.00,OVC,,0.00,30.0,WeatherDisplay:10.37,2013-07-04 17:56:00,
2013-07-04 13:01:00,87.6,61.7,30.00,North,0,6.9,6.9,42,0.00,OVC,,0.00,10.0,WeatherDisplay:10.37,2013-07-04 18:01:00,
2013-07-04 13:06:00,87.8,61.9,30.00,WSW,248,9.2,9.2,42,0.00,OVC,,0.00,20.0,WeatherDisplay:10.37,2013-07-04 18:06:00,
2013-07-04 13:11:00,88.0,61.3,30.00,ESE,112,6.9,6.9,41,0.00,OVC,,0.00,20.0,WeatherDisplay:10.37,2013-07-04 18:11:00,
2013-07-04 13:17:00,87.8,60.5,30.00,East,90,3.5,3.7,40,0.00,OVC,,0.00,20.0,WeatherDisplay:10.37,2013-07-04 18:17:00,
2013-07-04 13:22:00,88.2,61.5,30.00,SE,135,5.8,5.8,41,0.00,OVC,,0.00,20.0,WeatherDisplay:10.37,2013-07-04 18:22:00,
2013-07-04 13:27:00,88.3,61.0,30.00,SE,135,1.2,3.2,40,0.00,OVC,,0.00,20.0,WeatherDisplay:10.37,2013-07-04 18:27:00,
2013-07-04 13:32:00,88.7,62.0,29.99,ESE,112,8.5,8.5,41,0.00,OVC,,0.00,20.0,WeatherDisplay:10.37,2013-07-04 18:32:00,
2013-07-04 13:37:00,88.7,59.8,29.99,East,90,1.2,2.6,38,0.00,OVC,,0.00,20.0,WeatherDisplay:10.37,2013-07-04 18:37:00,
2013-07-04 13:42:00,88.9,60.0,29.99,East,90,4.6,4.6,38,0.00,OVC,,0.00,20.0,WeatherDisplay:10.37,2013-07-04 18:42:00,
2013-07-04 13:48:00,89.1,61.6,29.99,SE,135,4.7,4.7,40,0.00,OVC,,0.00,30.0,WeatherDisplay:10.37,2013-07-04 18:48:00,
2013-07-04 13:53:00,88.9,59.2,29.99,ENE,68,2.3,3.1,37,0.00,OVC,,0.00,30.0,WeatherDisplay:10.37,2013-07-04 18:53:00,
2013-07-04 13:58:00,89.2,59.6,29.99,ENE,68,2.3,2.8,37,0.00,OVC,,0.00,30.0,WeatherDisplay:10.37,2013-07-04 18:58:00,
2013-07-04 14:03:00,89.8,60.8,29.99,SE,135,5.8,5.8,38,0.00,OVC,,0.00,30.0,WeatherDisplay:10.37,2013-07-04 19:03:00,
2013-07-04 14:09:00,89.8,60.0,29.99,ESE,112,5.8,5.8,37,0.00,OVC,,0.00,30.0,WeatherDisplay:10.37,2013-07-04 19:09:00,
2013-07-04 14:14:00,90.0,58.6,29.98,East,90,6.9,6.9,35,0.00,OVC,,0.00,30.0,WeatherDisplay:10.37,2013-07-04 19:14:00,
2013-07-04 14:19:00,90.3,59.0,29.98,ESE,112,5.8,5.8,35,0.00,OVC,,0.00,30.0,WeatherDisplay:10.37,2013-07-04 19:19:00,
2013-07-04 14:24:00,90.3,59.0,29.98,SE,135,4.6,4.6,35,0.00,OVC,,0.00,20.0,WeatherDisplay:10.37,2013-07-04 19:24:00,
2013-07-04 14:29:00,90.5,58.3,29.99,ESE,112,1.2,2.2,34,0.00,OVC,,0.00,20.0,WeatherDisplay:10.37,2013-07-04 19:29:00,
2013-07-04 14:34:00,90.5,58.3,29.99,East,90,5.8,5.8,34,0.00,OVC,,0.00,30.0,WeatherDisplay:10.37,2013-07-04 19:34:00,
2013-07-04 14:39:00,90.9,56.9,29.99,ENE,68,4.6,4.6,32,0.00,OVC,,0.00,30.0,WeatherDisplay:10.37,2013-07-04 19:39:00,
2013-07-04 14:45:00,91.2,58.9,29.99,ESE,112,3.5,3.8,34,0.00,OVC,,0.00,30.0,WeatherDisplay:10.37,2013-07-04 19:45:00,
2013-07-04 14:50:00,91.0,58.8,29.97,East,90,4.6,4.6,34,0.00,OVC,,0.00,20.0,WeatherDisplay:10.37,2013-07-04 19:50:00,
2013-07-04 14:55:00,91.2,58.9,29.97,West,270,2.3,2.3,34,0.00,OVC,,0.00,30.0,WeatherDisplay:10.37,2013-07-04 19:55:00,
2013-07-04 15:00:00,90.9,57.8,29.97,East,90,4.6,4.6,33,0.00,OVC,,0.00,30.0,WeatherDisplay:10.37,2013-07-04 20:00:00,
2013-07-04 15:05:00,91.2,58.1,29.97,SE,135,5.8,5.8,33,0.00,OVC,,0.00,30.0,WeatherDisplay:10.37,2013-07-04 20:05:00,
2013-07-04 15:10:00,91.2,58.1,29.96,ESE,112,2.3,2.6,33,0.00,OVC,,0.00,30.0,WeatherDisplay:10.37,2013-07-04 20:10:00,
2013-07-04 15:15:00,91.4,58.3,29.96,South,180,3.5,3.5,33,0.00,OVC,,0.00,30.0,WeatherDisplay:10.37,2013-07-04 20:15:00,
2013-07-04 15:20:00,91.4,59.1,29.96,SE,135,4.6,4.6,34,0.00,OVC,,0.00,30.0,WeatherDisplay:10.37,2013-07-04 20:20:00,
2013-07-04 15:25:00,91.6,57.6,29.96,ESE,112,4.0,4.0,32,0.00,OVC,,0.00,30.0,WeatherDisplay:10.37,2013-07-04 20:25:00,
2013-07-04 15:31:00,91.9,57.9,29.95,SE,135,7.2,7.2,32,0.00,OVC,,0.00,30.0,WeatherDisplay:10.37,2013-07-04 20:31:00,
2013-07-04 15:36:00,91.9,57.9,29.95,ESE,112,5.8,5.8,32,0.00,OVC,,0.00,30.0,WeatherDisplay:10.37,2013-07-04 20:36:00,
2013-07-04 15:41:00,91.9,57.0,29.95,NW,315,3.5,3.5,31,0.00,OVC,,0.00,30.0,WeatherDisplay:10.37,2013-07-04 20:41:00,
2013-07-04 15:46:00,92.3,58.2,29.95,SE,135,0.0,1.6,32,0.00,OVC,,0.00,20.0,WeatherDisplay:10.37,2013-07-04 20:46:00,
2013-07-04 15:51:00,92.3,59.0,29.95,East,90,2.3,2.3,33,0.00,OVC,,0.00,20.0,WeatherDisplay:10.37,2013-07-04 20:51:00,
2013-07-04 15:56:00,92.5,60.0,29.95,SE,135,4.6,4.6,34,0.00,OVC,,0.00,20.0,WeatherDisplay:10.37,2013-07-04 20:56:00,
2013-07-04 16:01:00,92.7,59.4,29.95,ESE,112,8.1,8.1,33,0.00,OVC,,0.00,20.0,WeatherDisplay:10.37,2013-07-04 21:01:00,
2013-07-04 16:07:00,92.7,57.6,29.95,ENE,68,2.3,2.6,31,0.00,OVC,,0.00,20.0,WeatherDisplay:10.37,2013-07-04 21:07:00,
2013-07-04 16:12:00,92.7,58.5,29.95,SE,135,4.6,4.6,32,0.00,OVC,,0.00,20.0,WeatherDisplay:10.37,2013-07-04 21:12:00,
2013-07-04 16:17:00,92.5,57.4,29.95,SE,135,3.5,3.5,31,0.00,OVC,,0.00,10.0,WeatherDisplay:10.37,2013-07-04 21:17:00,
2013-07-04 16:22:00,92.3,59.0,29.95,West,270,0.0,1.5,33,0.00,OVC,,0.00,20.0,WeatherDisplay:10.37,2013-07-04 21:22:00,
2013-07-04 16:28:00,92.5,58.3,29.95,ESE,112,3.5,3.5,32,0.00,OVC,,0.00,20.0,WeatherDisplay:10.37,2013-07-04 21:28:00,
2013-07-04 16:33:00,92.7,58.5,29.94,East,90,5.8,5.8,32,0.00,OVC,,0.00,20.0,WeatherDisplay:10.37,2013-07-04 21:33:00,
2013-07-04 16:38:00,92.8,58.6,29.94,East,90,5.8,5.8,32,0.00,OVC,,0.00,20.0,WeatherDisplay:10.37,2013-07-04 21:38:00,
2013-07-04 16:43:00,93.0,58.8,29.94,ESE,112,2.3,2.5,32,0.00,OVC,,0.00,20.0,WeatherDisplay:10.37,2013-07-04 21:43:00,
2013-07-04 16:48:00,92.7,58.5,29.94,ESE,112,0.0,1.6,32,0.00,OVC,,0.00,20.0,WeatherDisplay:10.37,2013-07-04 21:48:00,
2013-07-04 16:53:00,92.7,57.6,29.93,ESE,112,3.5,3.5,31,0.00,OVC,,0.00,30.0,WeatherDisplay:10.37,2013-07-04 21:53:00,
2013-07-04 16:59:00,93.0,57.0,29.93,ENE,68,6.9,6.9,30,0.00,OVC,,0.00,20.0,WeatherDisplay:10.37,2013-07-04 21:59:00,
2013-07-04 17:04:00,93.2,58.1,29.93,East,90,6.9,6.9,31,0.00,OVC,,0.00,20.0,WeatherDisplay:10.37,2013-07-04 22:04:00,
2013-07-04 17:09:00,93.2,57.2,29.93,ENE,68,4.6,4.6,30,0.00,OVC,,0.00,20.0,WeatherDisplay:10.37,2013-07-04 22:09:00,
2013-07-04 17:14:00,93.2,57.2,29.93,East,90,6.9,6.9,30,0.00,OVC,,0.00,20.0,WeatherDisplay:10.37,2013-07-04 22:14:00,
2013-07-04 17:19:00,93.2,57.2,29.93,East,90,4.7,4.7,30,0.00,OVC,,0.00,20.0,WeatherDisplay:10.37,2013-07-04 22:19:00,
2013-07-04 17:24:00,93.4,58.2,29.93,SE,135,6.9,6.9,31,0.00,OVC,,0.00,20.0,WeatherDisplay:10.37,2013-07-04 22:24:00,
2013-07-04 17:30:00,93.2,57.2,29.92,ESE,112,4.6,4.6,30,0.00,OVC,,0.00,20.0,WeatherDisplay:10.37,2013-07-04 22:30:00,
2013-07-04 17:35:00,93.2,58.1,29.92,East,90,3.5,3.5,31,0.00,OVC,,0.00,20.0,WeatherDisplay:10.37,2013-07-04 22:35:00,
2013-07-04 17:40:00,93.4,57.3,29.92,East,90,9.2,9.2,30,0.00,OVC,,0.00,20.0,WeatherDisplay:10.37,2013-07-04 22:40:00,
2013-07-04 17:45:00,93.6,56.5,29.92,ENE,68,2.3,3.9,29,0.00,OVC,,0.00,20.0,WeatherDisplay:10.37,2013-07-04 22:45:00,
2013-07-04 17:50:00,93.6,58.4,29.92,SE,135,3.5,3.5,31,0.00,OVC,,0.00,20.0,WeatherDisplay:10.37,2013-07-04 22:50:00,
2013-07-04 17:55:00,93.7,57.6,29.92,ESE,112,3.5,3.5,30,0.00,OVC,,0.00,20.0,WeatherDisplay:10.37,2013-07-04 22:55:00,
2013-07-04 18:00:00,93.7,57.6,29.92,ESE,112,2.3,2.3,30,0.00,OVC,,0.00,20.0,WeatherDisplay:10.37,2013-07-04 23:00:00,
2013-07-04 18:06:00,93.7,55.7,29.92,ENE,68,4.6,4.6,28,0.00,OVC,,0.00,20.0,WeatherDisplay:10.37,2013-07-04 23:06:00,
2013-07-04 18:11:00,93.9,57.8,29.91,ESE,112,3.5,3.5,30,0.00,OVC,,0.00,20.0,WeatherDisplay:10.37,2013-07-04 23:11:00,
2013-07-04 18:16:00,93.9,57.8,29.91,SE,135,4.8,4.8,30,0.00,OVC,,0.00,20.0,WeatherDisplay:10.37,2013-07-04 23:16:00,
2013-07-04 18:21:00,93.7,55.7,29.91,East,90,4.6,4.6,28,0.00,OVC,,0.00,20.0,WeatherDisplay:10.37,2013-07-04 23:21:00,
2013-07-04 18:26:00,93.7,55.7,29.91,ESE,112,6.1,6.1,28,0.00,OVC,,0.00,10.0,WeatherDisplay:10.37,2013-07-04 23:26:00,
2013-07-04 18:32:00,93.6,57.5,29.91,ESE,112,6.1,6.1,30,0.00,OVC,,0.00,10.0,WeatherDisplay:10.37,2013-07-04 23:32:00,
2013-07-04 18:37:00,93.7,56.7,29.91,ESE,112,5.5,5.5,29,0.00,OVC,,0.00,10.0,WeatherDisplay:10.37,2013-07-04 23:37:00,
2013-07-04 18:42:00,93.7,55.7,29.91,East,90,4.6,4.6,28,0.00,OVC,,0.00,10.0,WeatherDisplay:10.37,2013-07-04 23:42:00,
2013-07-04 18:47:00,93.7,55.7,29.91,East,90,2.3,3.5,28,0.00,OVC,,0.00,10.0,WeatherDisplay:10.37,2013-07-04 23:47:00,
2013-07-04 18:53:00,93.7,55.7,29.90,ENE,68,2.3,2.6,28,0.00,OVC,,0.00,10.0,WeatherDisplay:10.37,2013-07-04 23:53:00,
2013-07-04 18:58:00,93.2,55.2,29.90,ESE,112,3.6,3.6,28,0.00,OVC,,0.00,10.0,WeatherDisplay:10.37,2013-07-04 23:58:00,
2013-07-04 19:03:00,92.8,54.9,29.90,ESE,112,5.6,5.6,28,0.00,OVC,,0.00,10.0,WeatherDisplay:10.37,2013-07-05 00:03:00,
2013-07-04 19:08:00,92.5,54.6,29.90,ESE,112,5.8,5.8,28,0.00,OVC,,0.00,10.0,WeatherDisplay:10.37,2013-07-05 00:08:00,
2013-07-04 19:13:00,92.3,54.5,29.91,East,90,4.6,4.6,28,0.00,OVC,,0.00,10.0,WeatherDisplay:10.37,2013-07-05 00:13:00,
2013-07-04 19:18:00,92.1,54.3,29.91,East,90,4.6,4.6,28,0.00,OVC,,0.00,10.0,WeatherDisplay:10.37,2013-07-05 00:18:00,
2013-07-04 19:23:00,91.9,55.1,29.91,ESE,112,4.6,4.6,29,0.00,OVC,,0.00,10.0,WeatherDisplay:10.37,2013-07-05 00:23:00,
2013-07-04 19:28:00,91.9,55.1,29.91,East,90,5.8,5.8,29,0.00,OVC,,0.00,10.0,WeatherDisplay:10.37,2013-07-05 00:28:00,
2013-07-04 19:33:00,91.9,57.9,29.92,East,90,9.2,9.2,32,0.00,OVC,,0.00,20.0,WeatherDisplay:10.37,2013-07-05 00:33:00,
2013-07-04 19:39:00,91.6,60.9,29.92,East,90,9.2,9.2,36,0.00,OVC,,0.00,20.0,WeatherDisplay:10.37,2013-07-05 00:39:00,
2013-07-04 19:44:00,91.2,62.8,29.92,ESE,112,13.8,13.8,39,0.00,OVC,,0.00,10.0,WeatherDisplay:10.37,2013-07-05 00:44:00,
2013-07-04 19:49:00,90.9,62.5,29.92,ENE,68,8.1,9.5,39,0.00,OVC,,0.00,10.0,WeatherDisplay:10.37,2013-07-05 00:49:00,
2013-07-04 19:54:00,90.5,63.6,29.92,SSE,158,9.2,9.2,41,0.00,OVC,,0.00,20.0,WeatherDisplay:10.37,2013-07-05 00:54:00,
2013-07-04 19:59:00,90.0,63.1,29.92,East,90,8.1,8.1,41,0.00,OVC,,0.00,10.0,WeatherDisplay:10.37,2013-07-05 00:59:00,
2013-07-04 20:04:00,89.6,63.5,29.92,East,90,10.4,10.4,42,0.00,OVC,,0.00,20.0,WeatherDisplay:10.37,2013-07-05 01:04:00,
2013-07-04 20:10:00,89.2,63.1,29.93,ESE,112,8.1,8.1,42,0.00,OVC,,0.00,20.0,WeatherDisplay:10.37,2013-07-05 01:10:00,
2013-07-04 20:15:00,88.9,62.8,29.93,East,90,5.8,6.6,42,0.00,OVC,,0.00,20.0,WeatherDisplay:10.37,2013-07-05 01:15:00,
2013-07-04 20:20:00,88.7,62.7,29.93,East,90,12.7,12.7,42,0.00,OVC,,0.00,40.0,WeatherDisplay:10.37,2013-07-05 01:20:00,
2013-07-04 20:25:00,88.3,63.0,29.93,East,90,9.2,9.2,43,0.00,OVC,,0.00,40.0,WeatherDisplay:10.37,2013-07-05 01:25:00,
2013-07-04 20:30:00,88.0,62.7,29.94,ESE,112,9.2,9.2,43,0.00,OVC,,0.00,50.0,WeatherDisplay:10.37,2013-07-05 01:30:00,
2013-07-04 20:35:00,88.0,63.3,29.94,ESE,112,9.2,9.2,44,0.00,OVC,,0.00,50.0,WeatherDisplay:10.37,2013-07-05 01:35:00,
2013-07-04 20:40:00,87.6,63.0,29.94,East,90,8.3,8.3,44,0.00,OVC,,0.00,70.0,WeatherDisplay:10.37,2013-07-05 01:40:00,
2013-07-04 20:45:00,87.4,62.8,29.94,SE,135,8.1,8.1,44,0.00,OVC,,0.00,80.0,WeatherDisplay:10.37,2013-07-05 01:45:00,
2013-07-04 20:51:00,87.1,63.2,29.94,ESE,112,6.9,6.9,45,0.00,OVC,,0.00,100.0,WeatherDisplay:10.37,2013-07-05 01:51:00,
2013-07-04 20:56:00,87.1,63.2,29.94,SE,135,6.9,6.9,45,0.00,OVC,,0.00,110.0,WeatherDisplay:10.37,2013-07-05 01:56:00,
2013-07-04 21:01:00,86.9,63.0,29.94,ESE,112,8.1,8.1,45,0.00,CLR,,0.00,130.0,WeatherDisplay:10.37,2013-07-05 02:01:00,
2013-07-04 21:06:00,86.5,63.3,29.94,East,90,8.1,8.1,46,0.00,CLR,,0.00,130.0,WeatherDisplay:10.37,2013-07-05 02:06:00,
2013-07-04 21:12:00,86.5,63.3,29.93,East,90,6.9,6.9,46,0.00,CLR,,0.00,130.0,WeatherDisplay:10.37,2013-07-05 02:12:00,
2013-07-04 21:17:00,86.2,63.6,29.93,ESE,112,8.5,8.5,47,0.00,CLR,,0.00,130.0,WeatherDisplay:10.37,2013-07-05 02:17:00,
2013-07-04 21:22:00,86.0,63.4,29.93,ESE,112,6.9,6.9,47,0.00,CLR,,0.00,150.0,WeatherDisplay:10.37,2013-07-05 02:22:00,
2013-07-04 21:27:00,85.8,63.9,29.93,ESE,112,9.5,9.5,48,0.00,CLR,,0.00,140.0,WeatherDisplay:10.37,2013-07-05 02:27:00,
2013-07-04 21:32:00,85.8,63.9,29.95,SE,135,8.1,8.1,48,0.00,CLR,,0.00,150.0,WeatherDisplay:10.37,2013-07-05 02:32:00,
2013-07-04 21:37:00,85.5,63.5,29.95,ESE,112,6.9,6.9,48,0.00,CLR,,0.00,160.0,WeatherDisplay:10.37,2013-07-05 02:37:00,
2013-07-04 21:42:00,85.3,64.0,29.95,ESE,112,10.4,10.4,49,0.00,CLR,,0.00,180.0,WeatherDisplay:10.37,2013-07-05 02:42:00,
2013-07-04 21:48:00,85.1,63.8,29.95,SE,135,6.9,7.1,49,0.00,CLR,,0.00,0.0,WeatherDisplay:10.37,2013-07-05 02:48:00,
2013-07-04 21:53:00,84.9,64.2,29.95,East,90,3.8,6.6,50,0.00,CLR,,0.00,190.0,WeatherDisplay:10.37,2013-07-05 02:53:00,
2013-07-04 21:58:00,84.7,64.0,29.95,ESE,112,6.9,6.9,50,0.00,CLR,,0.00,180.0,WeatherDisplay:10.37,2013-07-05 02:58:00,
2013-07-04 22:03:00,84.6,64.4,29.95,ESE,112,6.9,6.9,51,0.00,CLR,,0.00,150.0,WeatherDisplay:10.37,2013-07-05 03:03:00,
2013-07-04 22:08:00,84.6,64.4,29.95,SE,135,6.9,6.9,51,0.00,CLR,,0.00,150.0,WeatherDisplay:10.37,2013-07-05 03:08:00,
2013-07-04 22:13:00,84.4,64.3,29.98,SE,135,4.3,4.3,51,0.00,CLR,,0.00,150.0,WeatherDisplay:10.37,2013-07-05 03:13:00,
2013-07-04 22:15:00,84.4,64.3,29.98,SE,135,4.6,4.6,51,0.00,CLR,,0.00,0.0,WeatherDisplay:10.37,2013-07-05 03:15:00,
2013-07-04 22:20:00,84.2,64.7,29.98,ENE,68,4.6,4.6,52,0.00,CLR,,0.00,140.0,WeatherDisplay:10.37,2013-07-05 03:20:00,
2013-07-04 22:25:00,84.0,64.5,29.98,ESE,112,5.8,5.8,52,0.00,CLR,,0.00,120.0,WeatherDisplay:10.37,2013-07-05 03:25:00,
2013-07-04 22:30:00,83.8,64.3,29.98,ESE,112,4.6,4.6,52,0.00,CLR,,0.00,120.0,WeatherDisplay:10.37,2013-07-05 03:30:00,
2013-07-04 22:35:00,83.7,64.2,29.98,ESE,112,3.5,4.1,52,0.00,CLR,,0.00,120.0,WeatherDisplay:10.37,2013-07-05 03:35:00,
2013-07-04 22:41:00,83.5,64.0,29.98,ESE,112,5.8,5.8,52,0.00,CLR,,0.00,0.0,WeatherDisplay:10.37,2013-07-05 03:41:00,
2013-07-04 22:46:00,83.7,64.2,29.98,SE,135,4.6,4.6,52,0.00,CLR,,0.00,0.0,WeatherDisplay:10.37,2013-07-05 03:46:00,
2013-07-04 22:51:00,83.3,63.8,29.99,ESE,112,9.4,9.4,52,0.00,CLR,,0.00,110.0,WeatherDisplay:10.37,2013-07-05 03:51:00,
2013-07-04 22:56:00,83.3,63.8,29.99,SE,135,7.4,7.4,52,0.00,CLR,,0.00,110.0,WeatherDisplay:10.37,2013-07-05 03:56:00,
2013-07-04 23:01:00,83.1,63.1,29.99,East,90,4.6,4.8,51,0.00,CLR,,0.00,0.0,WeatherDisplay:10.37,2013-07-05 04:01:00,
2013-07-04 23:02:00,82.9,62.4,29.99,SE,135,9.2,9.2,50,0.00,CLR,,0.00,30.0,WeatherDisplay:10.37,2013-07-05 04:02:00,
2013-07-04 23:07:00,82.9,62.4,29.99,SE,135,4.6,5.6,50,0.00,CLR,,0.00,30.0,WeatherDisplay:10.37,2013-07-05 04:07:00,
2013-07-04 23:12:00,82.8,62.2,29.99,ESE,112,4.6,4.6,50,0.00,CLR,,0.00,30.0,WeatherDisplay:10.37,2013-07-05 04:12:00,
2013-07-04 23:17:00,82.6,62.1,29.99,ESE,112,4.6,4.6,50,0.00,CLR,,0.00,30.0,WeatherDisplay:10.37,2013-07-05 04:17:00,
2013-07-04 23:22:00,82.4,61.9,29.99,SSE,158,9.2,9.2,50,0.00,CLR,,0.00,30.0,WeatherDisplay:10.37,2013-07-05 04:22:00,
2013-07-04 23:27:00,82.4,61.9,29.99,SSE,158,4.6,4.7,50,0.00,CLR,,0.00,30.0,WeatherDisplay:10.37,2013-07-05 04:27:00,
2013-07-04 23:32:00,82.2,61.7,29.99,SE,135,5.8,5.8,50,0.00,CLR,,0.00,30.0,WeatherDisplay:10.37,2013-07-05 04:32:00,
2013-07-04 23:37:00,82.2,61.7,29.99,SE,135,4.6,4.6,50,0.00,CLR,,0.00,30.0,WeatherDisplay:10.37,2013-07-05 04:37:00,
2013-07-04 23:43:00,81.9,61.4,29.99,East,90,5.8,5.8,50,0.00,CLR,,0.00,0.0,WeatherDisplay:10.37,2013-07-05 04:43:00,
2013-07-04 23:48:00,81.7,61.2,29.99,South,180,4.6,4.6,50,0.00,CLR,,0.00,0.0,WeatherDisplay:10.37,2013-07-05 04:48:00,
2013-07-04 23:53:00,81.7,61.8,30.00,SE,135,5.8,5.8,51,0.00,CLR,,0.00,30.0,WeatherDisplay:10.37,2013-07-05 04:53:00,
2013-07-04 23:58:00,81.5,61.6,30.00,ESE,112,3.9,3.9,51,0.00,CLR,,0.00,30.0,WeatherDisplay:10.37,2013-07-05 04:58:00,